Location: Kerb�bon
(47.7970°N, 3.3487°W)
Time: 12:03:50
(UTC+00:00)

DNEPR-1 R/B - Pass Details

Date: 12 May 2021
Orbit: 587 x 1334 km, 64.6° (Epoch: 18 June)

Event Time Altitude Azimuth Distance (km) Brightness Sun altitude
Exits shadow 22:54:00 34° 205° (SSW) 1,366 4.9 -21.7°
Maximum altitude 22:56:33 77° 126° (SE) 826 4.0 -21.8°
Drops below altitude 10° 23:01:30 10° 41° (NE) 2,184 6.7 -22.1°
Sets 23:03:39 0° 40° (NE) 3,027 7.6 -22.2°
